This is the latest recevied weather packets stored in our database for station/object KE5QKR. If no packets are shown the sender has not sent any weather packets the latest 10 day(s).
| Time | Temp. | Humidity | Pressure | Rain* | Wind** | Luminosity | Snow |
|---|---|---|---|---|---|---|---|
| 1778197801 | 23.33° C | 86% | 1011.9 hPa | 0 mm | - | 39 W/m² | - |
| 1778197496 | 23.33° C | 85% | 1012 hPa | 0 mm | - | 52 W/m² | - |
| 1778197193 | 23.89° C | 85% | 1011.8 hPa | 0 mm | - | 49 W/m² | - |
| 1778196890 | 23.89° C | 85% | 1012 hPa | 0 mm | - | 48 W/m² | - |
| 1778196588 | 23.89° C | 84% | 1011.9 hPa | 0 mm | - | 45 W/m² | - |
| 1778196285 | 23.89° C | 84% | 1011.8 hPa | 0 mm | - | 47 W/m² | - |
| 1778195982 | 23.89° C | 84% | 1012.1 hPa | 0 mm | - | 49 W/m² | - |
| 1778195678 | 23.89° C | 85% | 1011.8 hPa | 0 mm | - | 55 W/m² | - |
| 1778195375 | 23.89° C | 85% | 1012 hPa | 0 mm | - | 57 W/m² | - |
| 1778195073 | 23.89° C | 86% | 1011.8 hPa | 0 mm | - | 62 W/m² | - |
| 1778194772 | 23.89° C | 86% | 1011.9 hPa | 0 mm | - | 76 W/m² | - |
| 1778194468 | 23.89° C | 86% | 1012 hPa | 0 mm | - | 50 W/m² | - |
| 1778194165 | 23.89° C | 87% | 1011.9 hPa | 0 mm | - | 86 W/m² | - |
| 1778193861 | 23.89° C | 86% | 1011.6 hPa | 0 mm | - | 85 W/m² | - |
| 1778193558 | 23.89° C | 86% | 1011.8 hPa | 0 mm | - | 77 W/m² | - |
| 1778193254 | 23.89° C | 86% | 1011.6 hPa | 0 mm | - | 69 W/m² | - |
| 1778192951 | 23.89° C | 86% | 1011.8 hPa | 0 mm | - | 62 W/m² | - |
| 1778192648 | 23.89° C | 86% | 1011.7 hPa | 0 mm | - | 86 W/m² | - |
| 1778192344 | 23.89° C | 86% | 1011.7 hPa | 0 mm | - | 77 W/m² | - |
| 1778192041 | 24.44° C | 86% | 1011.7 hPa | 0 mm | - | 96 W/m² | - |
| 1778191737 | 24.44° C | 86% | 1011.8 hPa | 0 mm | - | 105 W/m² | - |
| 1778191435 | 24.44° C | 86% | 1011.6 hPa | 0 mm | - | 106 W/m² | - |
| 1778191131 | 24.44° C | 85% | 1011.6 hPa | 0 mm | - | 119 W/m² | - |
| 1778190828 | 24.44° C | 85% | 1011.4 hPa | 0 mm | - | 120 W/m² | - |
| 1778190525 | 24.44° C | 85% | 1011.5 hPa | 0 mm | - | 130 W/m² | - |
* Rain latest hour (hover to see other rain measurements)
** Current wind speed in m/s (hover to see current wind gust speed)